Wind_Speed
31 32 32 32 35 38 42 45 47 46 45 46 46 46 45 45 45 46 46 46 47 46 45 46 45 46 46 46 46 47 47 47 49 47 47 44 42 35 36 40 42 44 46
29 30 33 35 39 44 46 45 44 44 44 44 43 43 44 45 46 47 47 45 45 46 46 48 48 47 47 47 47 46 46 44 46 46 45 40 36 28 27 33 37 40 41
32 35 37 40 45 46 44 43 42 42 42 41 42 43 43 44 44 44 44 44 45 47 47 47 47 46 46 45 44 43 40 36 36 38 36 27 25 24 20 26 33 36 38
35 38 40 45 46 43 41 41 40 39 40 40 41 41 42 42 42 42 44 45 47 48 48 46 44 42 41 37 32 29 26 25 24 28 24 29 29 28 30 27 28 31 32
39 42 46 45 41 39 39 38 38 39 39 39 40 42 43 42 41 43 45 47 49 48 45 40 34 30 26 26 27 28 31 32 34 30 32 32 30 30 29 28 28 28 32
42 46 42 39 37 37 37 37 36 37 37 39 41 42 39 40 41 43 44 45 44 40 35 31 29 27 26 26 27 30 31 31 31 34 31 30 36 35 28 30 32 32 35
44 39 36 35 35 35 35 35 34 36 38 40 39 38 40 41 41 42 40 39 36 31 30 30 29 29 29 28 28 29 29 33 35 36 39 39 38 37 37 39 37 36 37
37 35 33 33 33 33 33 33 34 37 38 38 37 40 41 40 41 38 37 33 30 28 29 30 29 30 30 31 31 33 32 33 36 39 39 40 40 39 39 38 35 32 29
33 31 30 30 31 32 32 34 35 37 37 37 39 40 42 39 38 36 29 27 26 27 28 28 28 29 29 28 32 34 38 36 31 34 38 40 37 34 33 32 28 31 42
29 29 30 32 33 33 34 35 36 37 36 38 40 41 40 41 34 28 24 25 27 27 27 26 26 28 29 30 32 33 34 37 35 31 26 27 29 27 26 28 32 38 38
28 29 30 31 32 33 34 35 35 35 37 39 41 40 39 34 30 25 22 23 26 27 28 29 30 31 32 33 31 33 36 26 23 25 20 19 19 20 23 24 28 33 37
27 28 30 31 33 33 33 33 34 36 38 40 40 39 32 29 26 24 22 22 23 27 28 31 35 37 35 34 34 28 19 20 14 12 10 10 16 19 21 23 22 22 19
28 29 31 32 32 31 31 32 34 36 39 39 40 35 29 26 23 21 21 23 23 27 31 35 36 36 34 30 24 17 12 8 14 11 11 13 15 16 17 18 18 15 9
29 31 31 30 30 30 30 32 35 37 37 39 36 32 28 26 23 21 21 23 25 29 31 31 30 28 26 22 16 18 16 13 14 14 15 14 16 18 19 20 18 16 15
29 30 29 31 29 28 30 33 35 36 38 37 34 32 29 25 23 23 23 26 29 30 30 29 28 26 23 19 15 19 20 21 22 22 20 19 19 21 19 19 19 20 20
29 29 29 29 27 28 32 33 32 34 34 32 29 27 25 25 24 24 25 25 25 27 28 28 27 24 21 16 12 14 16 16 17 17 17 17 18 14 15 14 17 18 19
29 29 28 28 27 30 32 34 35 31 26 27 25 23 24 24 25 24 24 24 25 27 27 27 25 22 17 13 11 12 10 12 11 10 12 11 14 15 17 21 24 24 25
27 28 28 26 28 31 33 33 35 33 30 22 21 23 24 23 23 23 24 23 24 24 25 25 22 19 14 10 11 9 9 8 8 8 6 10 11 13 16 20 23 24 28
26 25 23 25 29 32 33 34 31 29 25 23 21 21 24 22 22 23 23 25 26 25 24 22 19 15 10 8 10 9 7 6 5 3 3 7 18 13 12 21 12 17 23
24 22 24 27 30 31 34 31 28 24 23 24 24 24 22 21 21 21 22 23 24 24 23 20 16 12 7 9 11 9 6 6 7 6 8 12 12 10 21 26 8 11 11
21 22 24 27 29 32 31 27 25 24 24 25 24 24 24 25 24 24 23 23 24 23 22 18 15 11 5 10 12 10 8 8 8 7 5 13 14 15 22 22 6 10 3
20 23 25 27 30 30 26 25 23 24 24 24 23 23 23 23 22 22 22 22 23 23 21 17 14 10 4 10 12 11 10 9 7 7 6 8 9 12 19 24 16 16 6
21 23 26 27 30 26 23 22 23 23 24 25 25 24 22 22 21 21 22 22 23 22 19 17 14 9 4 11 12 11 11 10 6 2 4 6 6 8 11 17 17 16 10
21 23 25 29 27 23 21 21 22 24 25 25 24 23 22 21 20 20 21 22 22 19 17 15 14 7 4 10 13 12 11 10 7 1 3 5 5 7 9 11 14 15 14
22 23 26 28 23 20 20 21 23 23 24 25 24 23 22 21 20 20 20 21 21 17 14 13 13 6 4 10 13 13 10 11 9 3 2 3 5 6 7 10 14 18 15
21 23 27 25 20 19 20 22 23 24 25 25 24 23 23 21 20 20 18 20 20 17 13 11 10 5 4 9 13 14 12 13 11 6 2 1 3 8 6 8 11 12 14
Wind_Direction
279 281 283 285 287 289 291 292 293 293 291 290 289 290 291 291 292 292 293 293 293 292 292 291 289 287 285 283 282 280 279 278 278 276 278 278 276 268 261 258 256 254 255
280 281 284 290 295 298 297 294 293 292 290 290 292 292 292 294 296 296 295 294 294 294 294 292 291 288 286 284 282 280 279 277 277 276 277 275 273 265 251 250 252 252 252
293 296 297 299 302 299 295 293 291 291 293 293 293 295 297 297 296 293 293 292 293 294 293 291 289 287 284 283 284 283 282 279 275 274 274 273 269 262 238 239 244 249 252
296 298 299 301 298 295 294 293 294 295 297 298 299 298 298 297 297 297 297 298 298 296 295 293 291 288 286 286 286 286 285 280 278 275 266 276 277 266 263 258 249 254 253
299 300 302 299 297 296 296 298 301 301 299 299 301 301 302 302 301 301 300 299 298 298 299 297 293 291 290 291 288 285 279 284 282 285 274 279 275 273 271 271 262 250 251
301 302 299 299 299 299 301 301 300 300 301 301 302 305 304 304 303 301 300 299 299 299 297 295 294 293 289 280 276 270 269 269 272 275 276 272 266 274 273 268 270 267 259
300 299 301 301 301 300 300 302 302 302 302 305 308 307 306 304 303 301 300 300 296 294 295 295 293 294 290 285 282 277 275 270 271 267 267 270 271 268 272 271 270 271 265
302 304 303 300 300 302 303 303 304 305 308 309 308 308 306 306 304 303 302 294 292 294 293 293 292 287 291 292 289 285 281 278 274 267 266 270 270 272 272 275 272 270 261
305 303 302 304 305 305 305 306 307 308 308 309 309 309 309 309 306 303 296 292 293 295 298 299 296 291 293 294 294 293 295 294 283 273 268 266 267 265 264 266 265 264 264
305 308 309 308 308 308 308 310 309 309 311 312 313 313 312 311 309 304 299 296 297 300 299 299 299 297 293 295 300 300 298 293 291 282 273 260 256 251 249 252 255 260 265
309 309 308 309 309 309 310 309 310 312 313 314 314 314 314 312 309 303 295 294 296 300 302 299 296 298 297 300 300 290 294 290 302 287 266 252 248 251 259 259 263 268 265
309 310 313 312 312 311 310 312 314 315 316 316 315 316 316 311 308 300 292 292 298 295 302 293 294 298 295 293 288 289 275 293 321 236 278 276 249 253 263 261 271 282 261
312 313 314 315 314 313 315 315 316 317 318 319 318 319 318 317 310 301 294 293 295 290 291 295 299 301 299 297 291 254 264 262 262 280 278 272 273 269 272 271 267 281 245
313 315 316 315 315 317 317 318 319 320 321 320 319 319 320 321 318 311 303 302 301 300 303 304 306 304 303 299 272 239 235 254 272 279 280 284 280 274 274 271 267 255 240
315 317 317 317 317 317 318 321 322 325 324 322 320 322 323 324 322 317 312 307 308 310 309 312 309 306 302 296 274 243 248 259 268 274 271 275 280 279 271 271 265 256 246
316 317 316 317 316 319 322 325 326 326 323 319 319 319 323 323 322 318 315 314 313 312 312 312 311 308 300 293 272 253 252 264 272 269 265 274 285 278 258 265 272 269 255
316 316 318 318 319 323 325 327 328 327 325 320 321 323 325 327 325 323 323 321 317 315 316 316 314 309 299 288 262 259 267 272 269 271 278 277 288 285 272 261 268 265 259
315 318 320 321 324 325 328 330 329 329 329 332 331 328 328 330 327 325 323 321 320 318 317 317 315 309 298 274 249 253 260 263 276 280 279 299 311 305 290 278 263 263 253
321 321 323 325 326 328 330 331 329 328 331 336 336 332 330 332 328 326 327 325 324 326 326 326 323 314 296 248 233 237 244 262 264 162 328 293 315 315 324 329 304 268 245
324 327 329 328 328 330 331 331 331 333 338 337 337 335 333 331 333 333 331 330 331 333 334 335 334 320 286 227 214 225 223 223 209 201 256 303 343 356 349 355 321 312 262
329 331 331 331 332 331 332 334 336 340 340 339 338 336 338 338 337 336 337 338 338 339 337 339 338 327 270 215 206 206 212 213 216 239 304 338 3 11 8 17 21 1 95
335 333 334 334 334 335 336 339 341 342 342 341 341 340 339 337 336 338 340 342 343 342 340 344 340 330 258 206 198 196 210 213 222 255 334 3 360 20 37 40 36 29 88
338 335 337 337 338 340 342 342 342 344 345 343 344 343 343 341 341 342 342 342 342 342 343 345 344 331 246 204 192 194 210 209 211 295 25 22 22 46 40 43 41 50 49
338 339 340 341 342 345 346 345 346 347 346 346 346 346 344 344 344 342 340 340 339 337 340 344 347 329 225 200 190 191 205 201 176 167 18 37 54 55 41 51 46 39 61
342 342 343 345 348 350 349 348 349 352 350 349 351 347 345 345 345 344 343 344 345 343 339 340 347 334 227 198 189 187 192 183 185 186 340 42 90 86 55 49 54 59 60
345 346 348 351 353 354 353 353 354 354 354 354 351 347 347 346 345 345 344 345 348 350 341 337 340 332 229 200 193 186 182 187 188 171 165 55 87 109 81 76 71 68 55
Height
3094 3092 3088 3085 3083 3079 3074 3069 3064 3059 3054 3050 3045 3041 3037 3033 3029 3025 3021 3017 3013 3009 3006 3001 2998 2995 2993 2991 2988 2985 2983 2981 2977 2979 2977 2977 2977 2981 2981 2981 2982 2983 2985
3087 3085 3082 3078 3074 3069 3064 3058 3053 3048 3043 3038 3035 3031 3027 3022 3018 3013 3009 3004 3000 2996 2993 2989 2986 2982 2979 2976 2973 2972 2970 2969 2966 2964 2963 2965 2965 2967 2969 2969 2970 2971 2973
3079 3076 3072 3068 3063 3058 3052 3047 3042 3038 3034 3030 3026 3021 3017 3012 3007 3002 2997 2993 2989 2984 2980 2976 2972 2968 2965 2963 2961 2958 2957 2957 2955 2952 2952 2956 2956 2956 2958 2960 2961 2961 2963
3071 3068 3063 3058 3052 3046 3042 3037 3033 3029 3025 3021 3016 3011 3006 3001 2996 2991 2985 2981 2976 2971 2967 2963 2959 2956 2952 2951 2950 2949 2948 2947 2946 2944 2945 2947 2947 2948 2948 2952 2954 2954 2955
3062 3058 3053 3047 3041 3037 3032 3028 3024 3020 3015 3011 3006 3001 2995 2990 2985 2979 2973 2968 2962 2958 2954 2950 2947 2945 2944 2943 2942 2941 2940 2938 2938 2937 2937 2937 2938 2938 2940 2941 2943 2946 2947
3053 3048 3042 3037 3032 3027 3023 3019 3015 3011 3006 3001 2996 2990 2985 2980 2975 2969 2963 2957 2952 2947 2943 2941 2939 2937 2936 2935 2934 2932 2932 2930 2929 2928 2928 2927 2928 2929 2931 2932 2933 2934 2936
3043 3038 3033 3028 3024 3020 3016 3012 3007 3003 2998 2992 2987 2981 2975 2970 2964 2958 2953 2947 2941 2938 2936 2933 2931 2930 2928 2926 2925 2923 2922 2921 2919 2918 2917 2917 2917 2920 2921 2920 2922 2923 2924
3035 3030 3026 3021 3017 3013 3009 3004 2999 2994 2988 2983 2978 2972 2966 2961 2954 2948 2942 2937 2934 2932 2929 2926 2923 2921 2920 2917 2914 2912 2911 2910 2910 2907 2905 2906 2907 2910 2909 2909 2910 2910 2911
3027 3023 3018 3014 3010 3006 3001 2996 2991 2985 2980 2975 2969 2963 2956 2950 2944 2938 2933 2929 2927 2925 2922 2919 2916 2913 2912 2909 2906 2902 2899 2897 2895 2893 2893 2894 2896 2898 2899 2900 2900 2900 2899
3020 3016 3011 3007 3003 2999 2994 2988 2983 2977 2972 2967 2960 2953 2945 2939 2934 2929 2926 2922 2919 2917 2915 2912 2910 2906 2903 2902 2898 2893 2888 2886 2884 2883 2882 2883 2885 2887 2889 2890 2891 2889 2890
3014 3010 3006 3001 2997 2992 2986 2981 2976 2970 2965 2958 2951 2944 2937 2930 2925 2922 2919 2916 2914 2911 2907 2905 2901 2899 2896 2893 2889 2885 2881 2877 2874 2872 2873 2875 2877 2879 2881 2882 2882 2881 2879
3008 3004 3000 2996 2990 2985 2980 2974 2969 2963 2957 2949 2942 2936 2930 2924 2919 2915 2913 2911 2909 2904 2901 2897 2893 2890 2887 2883 2879 2877 2874 2872 2869 2868 2869 2870 2871 2873 2874 2874 2874 2871 2867
3003 2999 2994 2989 2984 2978 2973 2968 2963 2956 2949 2941 2933 2927 2922 2917 2913 2909 2906 2904 2902 2897 2893 2889 2885 2880 2875 2871 2869 2869 2869 2868 2867 2868 2868 2868 2868 2868 2868 2868 2868 2867 2866
2997 2993 2988 2983 2978 2973 2967 2962 2956 2949 2942 2933 2926 2920 2916 2911 2906 2903 2900 2896 2893 2889 2885 2881 2876 2871 2867 2864 2862 2863 2864 2864 2864 2864 2863 2863 2863 2863 2863 2862 2862 2863 2864
2992 2987 2982 2977 2972 2967 2962 2956 2949 2942 2934 2926 2919 2914 2908 2905 2901 2897 2894 2890 2886 2881 2876 2873 2868 2864 2861 2858 2857 2859 2860 2860 2860 2859 2859 2859 2858 2857 2857 2856 2856 2858 2859
2987 2982 2977 2972 2967 2962 2956 2950 2945 2937 2929 2922 2916 2910 2906 2900 2896 2892 2888 2885 2880 2875 2871 2866 2861 2858 2854 2853 2853 2854 2855 2855 2855 2854 2854 2854 2853 2851 2851 2851 2851 2851 2852
2981 2977 2972 2966 2961 2956 2950 2943 2936 2932 2925 2917 2911 2907 2902 2897 2892 2888 2883 2879 2875 2870 2865 2860 2856 2852 2850 2849 2849 2850 2851 2850 2850 2850 2850 2850 2849 2848 2847 2846 2845 2844 2844
2976 2971 2966 2961 2956 2951 2945 2938 2930 2922 2917 2913 2909 2902 2898 2893 2889 2884 2880 2875 2871 2866 2861 2855 2851 2847 2845 2846 2846 2848 2848 2848 2848 2848 2848 2848 2846 2844 2841 2838 2836 2835 2835
2972 2967 2962 2957 2951 2945 2939 2933 2925 2919 2914 2909 2905 2900 2894 2890 2886 2881 2876 2870 2865 2860 2855 2850 2846 2843 2842 2842 2843 2845 2846 2847 2847 2847 2847 2846 2843 2839 2835 2829 2824 2822 2823
2967 2962 2958 2953 2947 2941 2934 2928 2922 2916 2911 2906 2901 2896 2891 2887 2882 2877 2872 2867 2862 2856 2851 2847 2844 2841 2840 2840 2842 2843 2845 2846 2846 2846 2846 2844 2840 2836 2833 2826 2820 2817 2815
2963 2959 2954 2949 2943 2937 2930 2924 2919 2914 2909 2904 2898 2892 2887 2882 2878 2873 2869 2864 2858 2853 2849 2845 2842 2839 2838 2838 2840 2843 2844 2845 2845 2846 2846 2843 2839 2836 2831 2825 2822 2818 2814
2961 2956 2951 2946 2940 2933 2927 2922 2916 2912 2906 2901 2896 2891 2886 2881 2876 2872 2867 2862 2857 2852 2847 2843 2840 2838 2836 2836 2839 2842 2843 2844 2846 2846 2846 2845 2842 2839 2835 2831 2827 2823 2820
2958 2953 2948 2942 2937 2930 2926 2920 2915 2910 2905 2899 2893 2888 2884 2879 2874 2870 2865 2860 2856 2851 2846 2842 2839 2836 2836 2836 2839 2841 2843 2845 2847 2847 2847 2846 2844 2842 2839 2836 2832 2829 2826
2955 2950 2945 2940 2934 2929 2924 2918 2913 2908 2903 2897 2892 2887 2882 2877 2872 2868 2863 2858 2854 2849 2845 2841 2838 2836 2835 2836 2838 2841 2843 2845 2848 2848 2848 2848 2846 2844 2842 2840 2837 2834 2831
2953 2948 2943 2938 2932 2928 2922 2917 2912 2907 2901 2896 2891 2885 2880 2875 2871 2866 2862 2857 2852 2847 2844 2841 2838 2835 2835 2836 2838 2840 2843 2845 2848 2849 2849 2849 2849 2847 2845 2844 2843 2840 2837
2951 2947 2941 2936 2931 2927 2921 2917 2912 2906 2900 2895 2889 2884 2879 2874 2869 2865 2860 2856 2851 2846 2842 2840 2837 2835 2834 2835 2838 2840 2843 2846 2849 2850 2851 2850 2851 2850 2848 2848 2847 2845 2843